Wind_Speed
18 20 23 24 24 25 24 25 26 25 23 24 25 26 25 25 24 22 21 21 20 19 18 17 16 16 16 17 17 17 18 18 17 16 16 15 14 14 14 14 13 12 11 11 10 10 9 8 7 7 6 6 5 5 4 4 4 4 5 6 6 6 7
17 18 20 20 20 22 23 24 25 24 24 25 25 26 27 27 26 24 23 22 21 21 20 18 17 16 16 17 17 17 18 18 17 17 16 15 14 15 15 14 14 13 12 12 11 10 10 9 8 7 7 7 6 6 5 5 5 5 5 5 6 6 6
17 18 20 19 19 21 23 25 25 25 26 25 24 26 28 29 29 27 25 23 23 23 21 19 18 17 16 16 17 17 17 17 17 17 16 15 15 15 16 16 15 14 13 12 11 10 10 9 8 7 7 7 7 7 6 5 6 6 6 6 6 6 7
15 16 20 21 22 22 23 24 24 24 24 24 24 25 26 28 27 23 22 23 24 23 21 19 18 18 17 17 17 17 17 17 16 16 16 15 15 16 17 17 16 15 15 13 12 11 10 10 9 8 8 8 8 7 7 6 6 7 6 6 6 6 7
16 13 16 20 23 23 22 22 21 21 21 22 24 25 24 25 23 20 21 21 20 21 20 19 19 19 19 18 17 17 17 17 17 17 16 16 16 17 18 18 17 16 15 14 14 13 11 11 10 9 9 8 8 7 7 6 6 7 6 6 6 6 7
20 14 14 15 16 17 19 20 21 21 22 23 24 25 26 24 21 19 19 18 19 19 20 21 21 21 20 19 19 18 18 18 17 17 17 16 16 16 17 17 17 17 16 15 15 14 13 11 10 9 9 9 9 8 7 7 7 7 7 7 6 6 7
27 18 17 16 16 17 20 23 24 24 23 24 24 24 24 22 20 19 18 17 19 21 22 22 23 22 22 21 21 21 20 19 18 18 18 17 16 16 16 17 17 17 17 17 16 15 14 13 12 10 10 10 10 9 8 8 7 7 7 7 7 7 7
31 22 17 17 21 23 24 25 26 25 26 26 24 23 22 19 19 20 18 17 19 20 22 24 24 24 23 23 22 22 21 20 19 18 18 18 17 17 16 17 17 17 18 18 17 16 15 14 14 13 11 11 10 10 9 9 9 8 8 7 7 7 7
29 26 20 21 24 25 24 26 26 24 27 30 27 26 23 19 19 20 19 18 18 18 19 21 22 23 23 24 24 23 23 22 21 19 18 18 18 17 17 17 17 18 18 18 18 18 17 16 15 15 14 13 12 11 11 10 10 10 9 8 8 8 8
24 26 24 24 23 22 22 24 23 21 24 27 27 27 24 21 20 19 18 17 16 17 17 19 21 22 22 24 25 25 25 24 22 21 19 18 18 18 18 18 17 18 18 18 18 19 19 18 17 16 16 15 14 13 12 12 11 11 10 9 9 9 9
17 19 20 19 19 19 20 23 23 20 20 21 22 24 23 22 21 20 18 15 14 15 16 17 20 23 23 25 26 27 26 26 25 23 21 20 19 19 19 19 19 18 18 19 19 20 20 20 19 18 17 16 15 14 13 13 12 11 11 10 10 10 10
12 12 13 13 14 15 18 21 23 22 20 19 19 21 22 22 22 21 18 15 12 13 16 19 22 24 25 28 31 29 27 26 26 24 22 21 21 20 19 19 20 19 19 19 19 20 21 20 20 20 19 18 17 16 15 15 14 14 13 12 12 12 11
11 10 9 9 9 10 13 17 20 20 21 20 19 20 22 21 21 20 19 16 11 10 14 18 21 22 24 28 34 34 30 29 29 26 24 23 23 22 20 19 20 20 19 19 19 20 21 20 20 20 19 19 18 18 18 17 17 17 16 15 14 14 13
12 10 9 9 9 8 10 14 18 19 20 20 19 20 21 21 19 16 17 18 14 10 10 12 15 20 23 26 31 32 30 30 29 27 26 25 25 24 23 21 20 19 18 18 19 20 20 20 20 20 20 20 19 20 20 20 20 20 19 18 17 17 16
12 11 10 10 9 9 9 11 16 18 18 19 20 20 20 21 19 17 17 19 19 19 18 18 18 22 25 27 28 28 27 28 28 27 27 28 29 29 27 24 22 21 18 16 17 19 19 20 21 21 21 20 20 21 22 22 22 22 21 20 20 20 19
12 11 10 10 9 9 10 10 13 16 18 19 20 20 20 20 20 20 20 20 21 23 25 26 25 26 28 29 28 26 26 27 27 27 27 28 30 30 28 26 25 23 20 18 17 18 18 19 21 22 22 21 20 21 22 23 24 24 23 22 22 22 21
11 11 11 11 10 9 9 10 11 14 16 17 18 19 19 20 21 22 22 22 23 24 26 27 27 28 30 31 29 26 26 26 25 26 27 28 29 28 26 26 26 25 24 23 21 19 19 20 21 22 22 22 21 21 22 24 24 25 24 23 23 23 23
12 12 12 11 10 10 10 10 11 12 13 15 17 18 18 19 20 21 22 23 24 25 26 27 28 28 30 31 29 28 27 25 24 26 29 29 28 27 27 28 27 27 27 27 25 23 22 21 21 21 21 21 22 22 21 22 22 24 24 24 23 24 24
14 14 13 11 11 11 11 12 13 13 13 13 15 17 18 19 19 20 20 21 22 23 24 26 27 28 28 29 30 29 28 26 26 28 29 28 25 25 27 29 29 29 30 30 27 25 25 25 23 23 22 22 22 22 21 21 21 22 23 23 22 21 23
17 16 14 13 12 12 13 14 14 15 15 14 14 15 17 18 18 19 20 20 21 22 23 25 27 29 30 31 32 31 30 30 29 28 27 26 26 27 29 30 30 31 32 31 30 28 28 28 27 25 25 25 24 23 22 21 21 22 23 23 21 19 20
17 17 16 14 14 13 13 13 14 14 15 15 14 15 15 16 17 18 18 20 21 22 23 25 27 29 31 33 33 33 33 32 31 30 28 27 28 29 29 29 29 30 30 30 31 31 30 30 30 28 27 27 27 28 27 24 22 22 24 23 22 20 20
18 17 17 16 15 15 14 13 13 13 13 13 13 13 13 13 14 15 15 17 18 20 22 24 25 26 28 29 31 32 32 33 34 33 31 29 29 28 28 27 28 30 31 31 32 33 33 33 32 31 30 29 29 31 31 28 24 24 25 24 23 22 21
20 19 18 18 17 16 15 14 14 13 13 13 12 11 11 10 10 10 11 11 13 14 17 20 22 23 24 25 26 28 30 31 32 31 31 31 31 30 28 27 27 30 32 34 34 34 34 33 32 31 31 31 31 31 31 30 27 26 26 26 25 25 24
21 21 20 20 19 18 16 15 15 14 13 13 12 11 11 10 9 8 8 8 8 9 11 12 14 17 18 19 21 21 22 24 24 26 29 32 32 30 28 28 28 30 32 34 35 35 34 32 31 29 29 30 31 31 30 29 29 29 28 28 28 29 28
24 23 21 21 20 18 16 15 16 15 14 15 13 11 11 11 10 9 8 8 8 9 9 9 9 10 12 13 14 13 13 15 17 20 26 29 29 29 29 29 30 31 32 34 34 34 34 32 32 31 29 29 30 30 30 29 29 29 30 30 30 30 31
25 23 22 22 21 18 17 18 18 17 16 16 14 13 14 13 12 12 11 11 12 12 12 10 9 10 10 11 11 10 9 10 11 13 17 21 24 26 27 29 31 31 32 33 33 33 33 33 32 32 31 30 31 31 31 31 31 31 31 31 32 31 31
27 25 24 24 22 22 22 22 21 20 20 20 19 19 19 18 18 18 17 17 17 17 17 15 14 13 13 13 13 12 10 10 9 9 9 12 15 17 18 23 28 30 32 32 32 32 32 33 33 33 33 33 33 32 32 33 35 36 35 34 33 32 31
27 25 26 26 25 26 27 26 26 25 25 25 26 26 25 24 24 24 23 23 22 22 22 21 20 18 18 17 17 15 14 12 11 10 9 8 9 10 10 13 18 23 27 30 33 33 32 32 33 33 33 34 34 34 36 36 35 34 31 30 30 31 31
25 25 26 26 27 28 28 28 28 28 29 30 30 30 30 29 29 28 28 28 27 26 26 26 25 24 22 22 22 20 19 17 15 14 13 11 10 9 8 8 10 14 19 23 27 30 30 31 32 32 32 33 34 36 37 36 33 30 28 27 28 31 32
26 26 26 27 28 28 27 27 27 27 28 30 31 31 31 31 31 31 31 31 30 30 29 29 29 29 27 26 25 25 23 22 20 19 17 15 13 12 11 9 8 10 13 16 19 22 24 27 30 31 32 33 34 35 35 33 32 31 28 28 29 30 31
29 28 28 28 28 28 27 27 27 27 27 28 29 31 31 32 32 32 32 32 32 32 32 32 32 31 31 30 29 28 28 27 25 24 22 20 18 16 15 14 13 11 12 14 16 18 20 23 25 28 31 33 33 34 33 32 32 32 32 31 29 27 27
27 28 27 27 27 27 26 26 27 27 27 27 28 29 30 31 32 32 32 32 33 33 34 34 34 34 33 33 32 31 31 30 29 28 27 25 23 21 19 19 18 17 16 16 16 17 18 20 23 25 27 29 30 31 31 31 32 32 34 32 27 21 22
25 25 25 25 26 26 25 25 25 26 26 26 26 27 28 29 30 31 32 32 33 34 34 35 35 36 35 35 35 34 33 33 32 32 31 30 28 26 24 23 23 22 21 20 19 20 20 20 22 23 24 25 25 26 28 31 32 32 33 32 29 24 22
23 24 24 24 24 25 25 25 25 25 25 26 26 26 27 27 28 29 30 31 32 33 33 34 35 35 36 36 36 36 36 35 35 35 34 34 33 31 30 28 28 27 26 25 24 24 23 22 22 23 23 23 24 25 27 29 32 33 32 32 32 31 27
22 22 22 22 23 23 24 24 24 24 24 25 25 25 26 26 27 27 29 30 31 32 33 33 34 34 35 35 36 37 37 37 37 37 37 37 36 35 34 33 33 32 31 30 28 27 27 26 25 25 24 24 24 26 26 27 29 32 32 33 34 35 33
20 19 19 20 20 20 21 22 22 23 24 24 24 25 25 25 26 26 28 29 30 31 32 33 34 34 34 34 35 36 37 37 38 38 38 38 38 38 38 37 37 37 36 34 33 32 31 31 29 28 27 26 25 27 28 28 28 30 32 33 35 37 37
19 19 19 19 19 20 21 22 23 24 25 26 26 26 27 27 27 27 28 29 30 31 32 33 33 34 34 34 35 36 37 37 38 38 38 38 38 39 40 39 39 39 39 38 37 37 36 36 34 32 31 29 28 28 29 30 30 30 31 32 35 38 39
19 19 19 20 21 22 23 24 25 26 27 28 29 29 30 30 30 30 30 31 32 32 33 33 34 34 34 35 35 36 37 38 38 38 39 39 39 39 40 40 40 39 39 39 40 40 41 40 38 36 35 33 31 30 30 31 32 33 32 32 33 36 38
Wind_Direction
193 194 195 200 202 202 204 205 208 210 210 210 211 215 218 219 220 219 216 213 211 209 207 205 207 212 214 212 214 215 217 221 222 221 223 225 221 217 217 213 206 204 203 198 196 196 193 190 188 181 175 173 169 170 180 182 176 173 170 165 173 183 180
192 191 191 197 200 200 204 206 207 212 214 212 213 215 217 219 218 217 216 212 212 212 207 204 206 210 213 214 216 217 218 222 225 224 224 225 224 220 219 219 213 207 205 204 203 201 197 196 197 192 181 179 178 174 180 184 186 194 186 173 175 179 179
190 196 200 201 199 200 206 207 206 211 216 215 217 218 219 220 216 212 211 208 210 213 209 205 207 209 212 214 216 218 218 222 224 226 226 224 223 221 219 221 218 212 207 209 211 207 203 202 205 206 195 189 187 181 183 187 189 197 198 187 181 178 181
171 190 201 199 194 194 199 205 209 213 216 216 219 221 224 228 224 217 215 211 208 210 209 209 211 212 214 214 216 218 219 221 222 225 228 226 223 221 220 220 221 219 213 211 213 211 210 209 209 213 212 205 199 187 185 191 193 198 200 190 186 185 185
152 163 188 190 185 184 190 203 210 212 214 216 220 224 226 228 226 222 224 223 217 212 209 211 216 217 217 216 218 219 218 219 221 223 227 228 226 223 222 220 220 222 220 216 215 215 215 216 213 215 219 219 216 201 190 193 197 202 203 193 190 193 189
159 150 165 177 178 179 189 202 207 206 209 214 218 222 222 218 218 222 225 226 225 221 214 214 219 221 220 217 217 219 219 217 218 223 226 228 230 229 227 225 223 223 223 221 221 220 220 221 218 217 222 226 227 219 205 200 201 204 207 202 199 202 197
176 163 154 164 171 177 184 192 199 200 205 213 218 224 224 213 210 220 224 222 223 223 219 218 219 221 223 222 219 219 219 216 215 221 226 228 231 232 231 230 228 225 224 224 224 225 225 225 224 221 224 226 227 228 224 217 212 210 211 209 207 212 212
179 168 157 172 183 187 186 185 192 197 203 210 214 221 226 216 207 211 212 216 222 224 224 223 223 222 222 223 222 221 221 219 216 217 222 227 230 232 233 233 234 232 229 227 227 228 229 229 229 227 227 228 227 230 233 232 228 223 219 215 213 218 223
174 171 175 190 195 196 192 184 185 193 200 206 208 213 219 215 209 207 206 211 219 225 228 231 235 234 228 223 222 223 224 223 221 218 219 224 228 232 235 235 234 235 236 235 231 230 230 231 233 232 231 231 231 232 235 238 239 236 228 221 220 223 226
178 185 194 205 207 209 205 195 189 190 197 203 206 211 214 211 209 210 210 214 218 223 229 237 243 240 232 225 221 221 223 223 221 219 218 222 225 229 234 235 234 233 235 238 236 234 233 232 234 235 234 233 234 235 238 241 244 245 240 230 225 228 229
177 189 199 211 217 218 218 212 206 201 199 203 207 209 211 211 211 213 215 216 218 222 226 235 240 236 231 231 226 221 221 222 220 218 218 223 226 226 230 234 235 233 232 235 237 237 236 234 236 238 237 237 238 238 240 244 246 247 246 242 237 234 233
163 174 183 195 204 208 212 214 214 208 198 199 206 209 211 212 212 217 221 220 221 227 226 228 232 230 227 232 232 223 218 220 221 218 217 223 229 229 231 235 237 236 233 232 236 240 240 238 237 241 242 241 241 241 242 243 246 247 247 247 247 246 243
155 159 162 165 171 182 192 197 202 201 197 197 200 203 208 210 210 216 221 220 219 229 232 230 231 229 223 227 231 225 217 217 218 217 214 217 225 231 233 236 239 241 239 236 235 239 244 244 240 241 243 244 243 244 244 244 244 246 247 248 251 252 252
151 151 152 148 149 160 175 184 190 194 199 203 201 198 201 204 205 209 215 216 213 214 227 230 232 231 222 221 227 227 222 219 217 217 215 215 221 229 232 234 238 241 242 242 240 240 243 248 248 245 244 244 245 244 246 246 246 246 247 248 252 254 255
150 151 152 148 148 151 160 178 190 197 201 205 207 205 204 205 206 206 209 212 208 207 218 227 234 235 228 225 227 226 224 223 220 217 217 216 218 221 221 222 229 233 232 235 242 244 242 244 250 251 247 245 246 246 247 247 247 248 248 249 252 255 257
161 156 155 153 154 152 154 166 183 198 205 210 213 212 210 211 209 206 208 210 208 210 219 226 233 238 236 233 231 227 224 226 224 221 222 224 223 221 217 215 223 231 230 228 233 242 244 242 244 250 252 249 246 246 249 251 251 251 250 250 252 255 257
176 173 166 163 164 161 164 168 174 188 200 209 215 215 214 215 214 212 212 212 212 217 223 225 227 234 236 235 235 233 231 232 230 227 228 231 231 229 223 219 223 228 229 227 226 231 239 239 238 244 251 253 253 250 249 253 256 256 255 253 252 254 256
180 183 175 170 171 169 172 175 177 181 187 197 208 212 215 218 221 223 222 220 219 223 225 224 224 228 232 234 236 237 236 237 236 232 231 231 233 233 231 228 228 229 229 229 228 230 236 237 236 239 243 248 254 256 255 254 257 260 262 260 256 255 256
181 181 178 177 174 169 171 175 179 184 186 192 200 205 209 214 220 224 227 229 228 228 228 227 228 231 233 235 238 238 237 238 239 238 236 236 237 239 237 234 232 233 234 235 234 237 242 245 246 247 248 249 251 255 259 260 261 263 265 267 264 260 259
185 182 181 181 176 171 171 173 177 182 185 190 197 202 205 209 214 219 223 227 229 231 231 232 234 237 238 240 241 242 242 241 240 241 240 238 239 239 236 234 231 232 234 235 234 236 242 247 250 252 255 258 259 259 260 261 263 266 269 270 269 266 264
192 188 185 181 178 176 173 172 176 177 179 183 191 199 204 207 210 213 217 222 226 229 231 233 235 238 240 242 244 245 245 243 242 243 241 238 238 239 240 241 240 240 240 238 236 236 239 243 246 249 250 254 259 262 262 260 260 263 267 271 271 268 265
198 194 191 187 184 182 179 176 175 174 175 178 182 189 197 204 210 213 217 222 224 227 230 232 236 239 242 245 246 246 246 245 243 242 240 240 241 241 242 246 248 247 244 242 241 242 242 242 244 246 249 251 254 256 258 259 258 258 259 262 266 268 266
202 200 197 195 194 191 187 184 181 178 177 177 175 178 184 189 197 206 215 220 223 226 229 231 235 239 243 247 250 250 249 249 248 247 245 245 245 242 239 241 247 249 245 243 244 246 246 247 246 245 247 252 254 254 254 254 255 257 258 258 260 263 264
206 206 202 202 204 198 190 190 191 189 189 188 182 182 186 188 192 198 205 214 224 231 232 234 238 241 244 249 254 258 257 258 258 254 251 249 248 246 244 242 246 250 249 246 246 247 250 252 251 250 249 252 255 256 255 254 252 253 257 259 258 259 260
211 211 208 209 211 203 195 199 202 201 204 202 195 198 206 206 208 211 214 222 234 241 241 241 245 250 252 254 259 265 267 267 265 257 251 250 251 252 252 250 252 254 254 252 250 250 254 257 258 258 258 257 258 258 258 256 252 251 254 257 259 259 258
220 220 218 220 220 215 213 216 215 216 220 219 215 222 228 229 232 234 235 238 244 248 250 250 251 255 261 264 264 268 269 270 272 265 257 255 254 254 255 256 258 259 259 258 256 254 256 258 261 263 262 260 260 260 259 258 254 250 250 252 254 254 254
225 227 228 230 231 229 229 230 229 231 235 236 237 239 242 246 249 250 250 250 251 253 256 257 256 256 259 264 266 269 268 267 271 273 271 267 263 261 261 258 257 257 258 259 259 257 256 257 261 264 263 262 261 261 259 256 251 247 245 246 249 251 251
230 233 236 239 240 239 238 239 240 241 243 245 247 248 250 253 255 256 256 255 254 255 258 260 260 258 258 261 263 266 268 269 271 271 272 272 267 267 266 259 254 253 253 254 255 255 256 257 260 262 263 264 264 263 262 259 257 258 259 260 259 259 258
234 236 240 243 246 246 246 247 249 249 249 250 250 250 252 253 254 256 257 257 257 257 258 259 260 259 259 260 262 264 265 266 270 271 271 272 271 271 272 267 256 249 247 248 249 251 253 256 258 259 260 262 263 263 264 267 271 277 280 277 270 264 263
245 245 246 246 248 248 249 250 250 251 253 253 254 254 254 254 254 254 255 256 257 258 258 258 259 259 258 258 259 260 261 261 262 264 265 266 268 271 275 277 270 258 253 250 249 250 251 253 254 256 258 260 262 263 266 270 273 275 276 272 268 265 264
252 254 255 255 254 253 252 251 250 249 251 252 254 255 256 256 257 256 256 256 256 257 257 258 258 259 258 257 256 256 257 257 257 258 259 259 260 262 266 270 272 270 265 261 258 256 254 253 253 255 256 258 261 264 266 268 267 267 267 266 266 270 272
253 255 257 259 259 259 258 257 255 254 253 252 253 255 256 257 257 258 257 257 257 257 257 258 258 259 259 259 258 256 255 255 254 254 255 255 256 256 258 261 265 267 267 267 267 265 261 257 254 253 253 256 259 262 265 266 265 264 264 262 263 270 278
255 256 258 261 262 262 262 261 260 259 258 258 258 257 257 257 258 258 259 258 258 258 258 258 258 259 259 259 259 259 257 256 254 253 252 251 252 253 254 256 259 262 263 265 266 267 266 264 260 257 257 258 260 261 262 263 262 261 261 260 256 253 258
257 259 261 262 263 263 263 263 263 263 262 262 262 261 261 260 259 260 260 260 259 259 259 258 258 258 259 259 259 259 259 258 256 255 253 251 249 249 250 251 254 256 257 259 261 263 266 267 267 266 263 261 260 259 259 259 260 259 258 257 255 251 248
255 257 260 261 263 264 265 265 265 265 265 265 264 264 265 264 264 264 263 263 262 262 261 261 260 260 260 260 260 260 260 259 258 257 256 254 252 249 247 247 248 251 254 256 258 260 262 263 264 265 265 263 262 262 262 262 263 263 259 256 254 253 251
250 252 255 259 262 265 267 268 269 268 268 268 267 267 268 268 268 268 268 268 267 266 265 265 264 263 263 262 262 262 262 261 260 260 259 258 257 255 252 248 245 247 250 254 255 254 256 258 259 260 261 262 262 263 264 264 265 265 262 258 255 254 253
247 249 253 257 262 266 269 271 272 272 272 272 271 271 271 271 270 270 270 270 271 270 270 269 268 266 265 264 263 263 263 263 263 262 261 261 260 259 258 254 250 247 247 248 249 250 251 254 255 256 256 257 258 259 261 264 266 266 265 261 257 255 255
248 253 259 263 267 269 271 273 274 275 275 275 274 274 273 273 273 272 271 270 271 271 271 271 270 270 269 267 266 265 264 264 263 263 263 262 262 261 261 260 258 253 249 247 246 246 247 249 251 252 253 253 254 255 257 260 263 265 266 266 262 258 256
Height
3176 3178 3179 3182 3183 3185 3188 3190 3190 3191 3193 3195 3197 3198 3199 3201 3202 3203 3205 3207 3208 3210 3212 3213 3215 3216 3218 3220 3221 3222 3224 3225 3226 3227 3228 3229 3230 3231 3233 3233 3234 3235 3236 3236 3237 3238 3239 3239 3240 3241 3242 3243 3243 3244 3245 3245 3246 3246 3247 3247 3248 3249 3250
3175 3177 3178 3180 3183 3184 3186 3187 3188 3190 3192 3194 3195 3196 3198 3199 3200 3201 3203 3205 3207 3209 3211 3213 3214 3216 3217 3219 3220 3222 3223 3224 3226 3227 3228 3229 3230 3231 3232 3233 3234 3235 3235 3236 3237 3238 3238 3239 3240 3241 3242 3242 3243 3244 3245 3246 3246 3246 3247 3247 3248 3249 3249
3174 3176 3177 3179 3181 3183 3184 3185 3187 3189 3191 3193 3194 3195 3195 3196 3197 3198 3201 3204 3206 3208 3210 3211 3213 3215 3216 3218 3219 3221 3222 3224 3225 3226 3227 3228 3229 3230 3231 3232 3234 3234 3235 3236 3237 3237 3238 3239 3240 3241 3242 3242 3243 3244 3245 3246 3247 3247 3247 3247 3248 3249 3250
3173 3175 3177 3179 3180 3182 3183 3184 3186 3188 3190 3192 3192 3193 3195 3196 3198 3201 3202 3203 3206 3208 3209 3210 3212 3214 3215 3217 3218 3220 3221 3223 3224 3226 3227 3228 3229 3229 3230 3231 3233 3234 3235 3236 3236 3237 3238 3238 3239 3240 3242 3242 3243 3244 3245 3246 3247 3247 3247 3248 3248 3249 3250
3172 3174 3176 3177 3178 3181 3183 3183 3185 3187 3189 3190 3191 3192 3194 3195 3198 3201 3203 3203 3205 3207 3207 3209 3211 3212 3214 3216 3217 3219 3221 3222 3223 3225 3226 3227 3228 3229 3230 3231 3232 3233 3234 3235 3236 3237 3237 3238 3239 3240 3241 3242 3243 3244 3244 3245 3246 3247 3247 3248 3249 3249 3250
3171 3172 3174 3175 3177 3180 3182 3182 3183 3185 3186 3188 3188 3189 3191 3194 3197 3199 3201 3203 3204 3205 3205 3207 3209 3210 3212 3214 3216 3218 3220 3221 3223 3224 3225 3226 3227 3229 3230 3230 3231 3232 3233 3235 3235 3236 3237 3238 3238 3240 3241 3242 3243 3244 3244 3245 3246 3247 3247 3248 3249 3249 3250
3169 3170 3172 3173 3173 3175 3177 3178 3180 3182 3184 3184 3185 3184 3186 3193 3198 3197 3198 3201 3202 3204 3205 3206 3207 3209 3211 3213 3215 3217 3218 3220 3221 3223 3224 3226 3227 3228 3229 3230 3231 3231 3232 3234 3235 3236 3236 3237 3238 3239 3240 3241 3242 3243 3244 3245 3245 3246 3247 3248 3248 3249 3250
3167 3170 3172 3171 3170 3170 3172 3174 3176 3179 3181 3182 3183 3182 3183 3190 3195 3195 3196 3198 3199 3201 3203 3204 3206 3208 3210 3212 3214 3216 3218 3220 3221 3222 3223 3225 3226 3227 3228 3229 3230 3231 3232 3232 3234 3235 3236 3237 3238 3238 3239 3240 3241 3242 3243 3244 3245 3246 3246 3247 3248 3248 3249
3165 3167 3168 3167 3167 3169 3171 3174 3175 3176 3177 3178 3181 3181 3182 3187 3191 3192 3193 3195 3197 3199 3201 3204 3206 3207 3209 3210 3212 3214 3216 3218 3220 3220 3221 3223 3224 3225 3226 3228 3229 3230 3231 3232 3233 3234 3235 3236 3237 3238 3239 3240 3240 3241 3242 3244 3244 3245 3246 3247 3247 3248 3249
3163 3164 3165 3165 3167 3168 3171 3174 3176 3176 3176 3177 3180 3181 3183 3185 3188 3190 3192 3194 3196 3198 3200 3202 3204 3206 3208 3210 3211 3212 3214 3216 3218 3219 3220 3221 3223 3224 3225 3226 3227 3228 3230 3231 3232 3233 3234 3235 3236 3237 3238 3239 3240 3241 3242 3243 3244 3245 3245 3246 3247 3247 3248
3163 3164 3164 3165 3166 3168 3170 3173 3175 3176 3177 3177 3179 3181 3182 3184 3186 3189 3191 3193 3195 3196 3197 3199 3201 3204 3206 3208 3210 3211 3211 3213 3215 3217 3218 3219 3220 3221 3223 3224 3225 3227 3228 3229 3230 3232 3233 3234 3235 3236 3237 3238 3239 3240 3241 3242 3243 3244 3245 3245 3246 3246 3247
3162 3163 3163 3164 3165 3166 3168 3170 3173 3175 3176 3177 3179 3180 3181 3184 3186 3189 3192 3193 3195 3196 3197 3198 3200 3202 3204 3206 3207 3208 3209 3210 3212 3214 3214 3217 3219 3220 3221 3223 3224 3225 3226 3228 3229 3230 3231 3233 3234 3235 3236 3237 3238 3239 3240 3241 3242 3242 3243 3244 3245 3245 3246
3161 3162 3163 3164 3165 3166 3167 3169 3171 3173 3175 3177 3178 3179 3181 3183 3186 3189 3191 3193 3194 3196 3198 3198 3198 3200 3202 3204 3206 3207 3207 3206 3207 3208 3209 3212 3216 3217 3219 3221 3222 3224 3225 3226 3227 3229 3230 3231 3232 3234 3235 3236 3237 3238 3239 3240 3240 3241 3242 3243 3244 3244 3245
3161 3162 3163 3164 3165 3166 3167 3169 3171 3172 3175 3176 3178 3179 3181 3183 3186 3189 3191 3193 3194 3197 3198 3198 3197 3197 3198 3200 3201 3203 3203 3200 3200 3201 3203 3207 3211 3214 3217 3219 3220 3222 3223 3224 3226 3227 3228 3229 3230 3232 3233 3234 3235 3236 3237 3238 3239 3240 3240 3241 3242 3243 3243
3161 3162 3163 3164 3165 3166 3167 3169 3170 3172 3174 3175 3177 3179 3181 3183 3185 3188 3190 3192 3193 3195 3197 3197 3196 3196 3196 3196 3196 3198 3197 3194 3194 3197 3199 3201 3203 3206 3210 3214 3217 3219 3220 3222 3224 3225 3227 3228 3228 3229 3230 3232 3233 3234 3235 3236 3237 3238 3239 3240 3241 3241 3242
3161 3162 3163 3164 3165 3166 3167 3169 3170 3171 3173 3175 3176 3179 3181 3182 3184 3186 3188 3190 3191 3193 3193 3193 3194 3195 3195 3194 3193 3193 3193 3192 3192 3195 3198 3200 3201 3203 3206 3210 3213 3216 3218 3220 3221 3223 3225 3226 3226 3227 3227 3229 3230 3232 3233 3233 3234 3235 3237 3238 3239 3240 3240
3160 3162 3163 3164 3165 3166 3167 3169 3170 3171 3172 3174 3175 3177 3180 3182 3184 3186 3188 3189 3190 3191 3192 3192 3193 3194 3192 3191 3191 3191 3191 3192 3194 3197 3199 3200 3202 3205 3208 3210 3211 3214 3216 3217 3218 3220 3222 3223 3224 3225 3225 3226 3227 3229 3230 3231 3232 3233 3234 3236 3237 3238 3239
3160 3162 3163 3164 3165 3166 3167 3168 3170 3171 3172 3173 3174 3176 3178 3179 3181 3183 3185 3187 3188 3189 3190 3191 3192 3191 3190 3190 3189 3189 3191 3194 3196 3197 3196 3198 3202 3206 3208 3210 3211 3213 3215 3216 3217 3218 3219 3220 3221 3221 3222 3223 3224 3225 3227 3228 3230 3231 3232 3233 3235 3236 3237
3160 3161 3162 3163 3164 3166 3167 3168 3169 3170 3172 3173 3174 3175 3176 3178 3179 3181 3182 3184 3185 3186 3187 3188 3189 3189 3189 3189 3189 3189 3192 3195 3195 3195 3196 3200 3204 3207 3208 3209 3210 3212 3213 3216 3217 3218 3218 3219 3219 3220 3220 3221 3221 3222 3223 3225 3227 3228 3229 3231 3233 3234 3235
3159 3160 3162 3163 3164 3165 3166 3167 3169 3170 3171 3172 3174 3175 3176 3177 3178 3179 3180 3181 3182 3183 3184 3185 3186 3187 3188 3188 3187 3188 3191 3193 3193 3194 3198 3200 3202 3203 3204 3205 3206 3208 3210 3212 3214 3215 3216 3217 3217 3218 3220 3221 3221 3221 3221 3223 3224 3226 3227 3228 3230 3232 3233
3159 3160 3161 3162 3163 3164 3165 3166 3168 3169 3170 3171 3173 3174 3175 3176 3177 3178 3179 3180 3181 3181 3182 3183 3183 3184 3185 3185 3186 3186 3188 3190 3191 3192 3195 3197 3198 3199 3202 3204 3206 3208 3208 3209 3210 3212 3213 3214 3215 3216 3217 3219 3220 3220 3220 3221 3222 3223 3224 3225 3227 3229 3230
3158 3159 3160 3161 3162 3163 3164 3165 3166 3168 3169 3170 3171 3172 3173 3175 3176 3176 3177 3178 3179 3179 3180 3181 3181 3182 3182 3182 3183 3184 3185 3187 3188 3189 3191 3194 3196 3198 3201 3203 3205 3206 3206 3206 3207 3209 3210 3211 3212 3213 3214 3215 3216 3216 3217 3218 3219 3220 3220 3222 3223 3225 3226
3157 3158 3159 3160 3161 3162 3163 3164 3165 3166 3167 3169 3170 3171 3172 3173 3174 3175 3176 3176 3177 3177 3178 3179 3179 3180 3180 3181 3181 3182 3183 3184 3185 3187 3190 3192 3194 3195 3198 3200 3201 3202 3203 3204 3205 3206 3207 3208 3209 3210 3210 3211 3212 3212 3213 3214 3216 3218 3218 3219 3220 3221 3222
3155 3156 3157 3158 3159 3160 3162 3163 3164 3165 3166 3167 3169 3170 3171 3172 3173 3174 3174 3175 3175 3176 3176 3177 3178 3178 3179 3180 3180 3180 3181 3182 3183 3186 3188 3189 3190 3191 3193 3196 3197 3198 3199 3201 3202 3203 3204 3205 3205 3206 3206 3207 3207 3208 3209 3210 3213 3214 3215 3216 3217 3217 3218
3153 3154 3156 3156 3157 3160 3161 3162 3162 3164 3164 3166 3168 3169 3169 3170 3171 3172 3173 3174 3174 3175 3175 3176 3176 3176 3177 3178 3178 3179 3180 3180 3181 3183 3184 3186 3187 3188 3190 3193 3194 3196 3197 3198 3199 3200 3201 3202 3203 3203 3203 3204 3204 3204 3205 3206 3208 3211 3212 3213 3214 3214 3215
3151 3153 3154 3155 3156 3159 3160 3160 3160 3162 3163 3164 3166 3167 3167 3168 3170 3171 3172 3172 3173 3173 3173 3174 3175 3175 3176 3176 3177 3178 3179 3179 3180 3181 3182 3183 3185 3186 3188 3191 3192 3194 3195 3196 3197 3197 3197 3198 3199 3200 3200 3201 3200 3201 3202 3203 3205 3206 3206 3206 3207 3208 3209
3149 3151 3152 3153 3155 3156 3157 3157 3159 3160 3161 3162 3163 3164 3165 3166 3167 3168 3170 3170 3170 3171 3171 3172 3173 3174 3174 3175 3175 3176 3177 3178 3179 3179 3180 3181 3182 3183 3185 3187 3189 3190 3192 3193 3194 3193 3194 3194 3195 3196 3197 3197 3197 3198 3198 3197 3196 3196 3197 3200 3202 3203 3204
3147 3149 3150 3151 3152 3153 3154 3155 3157 3158 3159 3159 3160 3161 3162 3164 3165 3165 3167 3167 3168 3168 3169 3170 3171 3172 3172 3172 3173 3174 3175 3176 3177 3178 3179 3180 3181 3182 3183 3184 3184 3185 3186 3188 3189 3189 3190 3191 3191 3192 3193 3193 3194 3194 3193 3191 3192 3196 3200 3203 3204 3204 3204
3145 3147 3148 3148 3149 3150 3151 3153 3154 3154 3155 3156 3157 3158 3159 3160 3161 3162 3163 3164 3164 3165 3166 3167 3167 3168 3169 3170 3170 3171 3172 3173 3174 3175 3176 3177 3178 3179 3180 3181 3182 3182 3182 3183 3184 3185 3186 3187 3187 3188 3189 3189 3190 3190 3190 3191 3196 3200 3203 3203 3203 3202 3203
3142 3144 3145 3146 3146 3147 3149 3150 3151 3151 3151 3152 3153 3154 3155 3156 3157 3158 3159 3160 3161 3162 3162 3163 3164 3164 3166 3167 3167 3168 3168 3169 3171 3172 3174 3175 3176 3176 3177 3178 3180 3180 3180 3180 3181 3181 3182 3182 3183 3184 3185 3185 3186 3187 3188 3191 3194 3196 3197 3197 3196 3197 3198
3139 3140 3141 3141 3142 3144 3145 3146 3147 3148 3148 3149 3149 3150 3151 3152 3153 3154 3155 3156 3157 3157 3158 3159 3160 3160 3161 3163 3163 3164 3165 3166 3167 3169 3170 3172 3173 3174 3175 3176 3177 3178 3178 3178 3178 3179 3179 3179 3179 3180 3180 3181 3182 3183 3185 3187 3189 3190 3191 3191 3192 3193 3194
3136 3137 3137 3138 3138 3139 3141 3142 3143 3144 3145 3145 3146 3146 3147 3148 3149 3150 3151 3152 3152 3153 3153 3154 3155 3156 3157 3158 3159 3160 3161 3162 3163 3165 3166 3168 3169 3170 3172 3172 3173 3175 3175 3176 3176 3176 3176 3176 3176 3176 3176 3177 3178 3180 3181 3182 3184 3185 3186 3187 3189 3190 3190
3133 3134 3134 3135 3135 3136 3137 3138 3138 3139 3140 3141 3141 3142 3143 3144 3145 3145 3146 3147 3148 3148 3149 3150 3150 3151 3152 3153 3154 3155 3156 3157 3159 3160 3161 3163 3164 3166 3167 3168 3170 3171 3172 3172 3173 3173 3173 3172 3172 3172 3173 3174 3175 3176 3177 3177 3178 3179 3181 3182 3184 3184 3184
3130 3131 3131 3132 3132 3132 3133 3134 3134 3135 3136 3137 3137 3138 3138 3139 3140 3141 3141 3142 3142 3143 3144 3145 3146 3147 3148 3148 3149 3150 3151 3152 3153 3154 3156 3157 3159 3161 3162 3164 3165 3166 3167 3168 3168 3169 3169 3169 3169 3169 3170 3170 3171 3172 3172 3173 3173 3174 3176 3178 3178 3178 3179
3127 3127 3128 3128 3128 3129 3129 3130 3130 3131 3132 3132 3133 3134 3134 3135 3135 3136 3136 3137 3137 3138 3139 3139 3141 3142 3143 3143 3144 3145 3145 3147 3148 3149 3150 3151 3153 3155 3157 3158 3159 3160 3161 3163 3164 3164 3165 3165 3165 3166 3166 3167 3167 3168 3168 3169 3169 3170 3172 3173 3173 3173 3174
3124 3124 3124 3124 3125 3125 3125 3126 3126 3127 3128 3128 3129 3130 3130 3131 3131 3132 3132 3132 3132 3132 3133 3134 3135 3136 3137 3138 3139 3139 3140 3141 3142 3143 3144 3145 3147 3148 3150 3152 3154 3154 3156 3158 3159 3160 3160 3160 3161 3162 3162 3163 3164 3165 3164 3165 3166 3166 3167 3168 3168 3168 3169
3121 3121 3122 3122 3122 3122 3122 3122 3123 3123 3123 3124 3125 3125 3126 3126 3127 3127 3128 3127 3127 3128 3128 3129 3130 3131 3132 3132 3133 3134 3134 3135 3136 3137 3138 3139 3140 3141 3142 3145 3147 3148 3150 3152 3153 3154 3154 3155 3156 3157 3158 3159 3160 3161 3161 3161 3162 3162 3162 3163 3163 3163 3164
3118 3119 3119 3119 3119 3119 3119 3119 3119 3119 3119 3120 3120 3121 3121 3122 3122 3122 3123 3123 3123 3123 3124 3124 3124 3125 3126 3127 3128 3128 3129 3129 3130 3131 3132 3133 3134 3135 3136 3137 3139 3141 3143 3145 3146 3148 3148 3149 3150 3151 3153 3154 3155 3157 3157 3157 3157 3157 3158 3158 3158 3158 3159